{"data":{"norad_id":60518,"intl_designator":"2024-149BC","name":"FLOCK 4BE-1","alt_names":[],"object_type":"PAYLOAD","status":"ACTIVE","operator":null,"country":"US","launch_date":"2024-08-16","launch_site_code":"AFWTR","launch_vehicle":null,"mission":null,"orbit_class":"UNKNOWN","rcs_meters":null,"size_class":null,"mass_kg":null,"dimensions":null,"purposes":["earth_obs"],"wikipedia_slug":null,"has_3d_model":false,"image_url":null,"decayed_at":null,"tle_current":{"epoch":"2026-09-19T05:06:04.398624Z","epoch_age_seconds":125760,"freshness":"FRESH","line1":"1 60518U 24149BC  26262.21255091  .00030553  00000+0  62380-3 0  9990","line2":"2 60518  97.3730 348.5946 0002945 316.0293  44.0721 15.46127792116880","mean_motion":15.46127792,"eccentricity":0.0002945,"inclination_deg":97.373,"raan_deg":348.5946,"arg_perigee_deg":316.0293,"mean_anomaly_deg":44.0721,"bstar":0.0006238,"rev_number":11688,"period_min":93.135897786126,"perigee_km":426.06186617294,"apogee_km":430.07071991254,"semimajor_km":6806.2032930427,"source":"CELESTRAK","updated_at":"2026-09-20T09:00:34.716002Z"}}}